| time (UTC) | temp F | wind direction | speed MPH | gust MPH | rain 1hr in | rain 24hr in | rain mn in | humidity % | barometer mb |
| 20260903202059 | 69 | 225 | 2.0 | 5.0 | 0.00 | 0.01 | 0.00 | 88 | 1020.7 |
| 20260903201017 | 69 | 203 | 3.0 | 8.0 | 0.00 | 0.01 | 0.00 | 88 | 1020.8 |
| 20260903200017 | 69 | 203 | 3.0 | 7.0 | 0.00 | 0.01 | 0.00 | 88 | 1021.0 |
| 20260903195038 | 69 | 203 | 3.0 | 5.0 | 0.00 | 0.01 | 0.00 | 88 | 1021.1 |
| 20260903194017 | 69 | 203 | 3.0 | 7.0 | 0.00 | 0.01 | 0.00 | 88 | 1021.1 |
| 20260903193017 | 69 | 180 | 3.0 | 5.0 | 0.00 | 0.01 | 0.00 | 88 | 1021.2 |
| 20260903192017 | 69 | 203 | 4.0 | 8.0 | 0.00 | 0.01 | 0.00 | 88 | 1021.3 |
| 20260903191018 | 69 | 180 | 2.0 | 6.0 | 0.00 | 0.01 | 0.00 | 88 | 1021.2 |
| 20260903190017 | 69 | 203 | 2.0 | 4.0 | 0.00 | 0.01 | 0.00 | 88 | 1021.1 |
| 20260903185017 | 70 | 203 | 3.0 | 6.0 | 0.00 | 0.01 | 0.00 | 87 | 1021.0 |
| 20260903184017 | 70 | 203 | 2.0 | 7.0 | 0.00 | 0.01 | 0.00 | 86 | 1020.9 |
| 20260903183038 | 70 | 203 | 3.0 | 6.0 | 0.00 | 0.01 | 0.00 | 85 | 1021.0 |
| 20260903182057 | 71 | 203 | 3.0 | 7.0 | 0.00 | 0.01 | 0.00 | 84 | 1021.1 |
| 20260903181017 | 71 | 203 | 3.0 | 5.0 | 0.00 | 0.02 | 0.00 | 84 | 1021.2 |
| 20260903180017 | 71 | 225 | 3.0 | 7.0 | 0.00 | 0.02 | 0.00 | 83 | 1021.2 |
| 20260903175017 | 72 | 203 | 3.0 | 7.0 | 0.00 | 0.02 | 0.00 | 83 | 1021.3 |
| 20260903174017 | 72 | 225 | 3.0 | 7.0 | 0.00 | 0.02 | 0.00 | 83 | 1021.3 |
| 20260903173018 | 72 | 225 | 3.0 | 9.0 | 0.00 | 0.02 | 0.00 | 83 | 1021.2 |
| 20260903172017 | 72 | 203 | 4.0 | 8.0 | 0.00 | 0.02 | 0.00 | 82 | 1021.2 |
| 20260903171015 | 73 | 225 | 3.0 | 6.0 | 0.00 | 0.03 | 0.00 | 82 | 1021.2 |
| 20260903170016 | 73 | 203 | 4.0 | 8.0 | 0.00 | 0.03 | 0.00 | 82 | 1021.1 |
| 20260903165015 | 73 | 203 | 4.0 | 7.0 | 0.00 | 0.03 | 0.00 | 81 | 1021.2 |
| 20260903164017 | 74 | 225 | 3.0 | 7.0 | 0.00 | 0.03 | 0.00 | 80 | 1021.3 |
| 20260903163016 | 74 | 203 | 3.0 | 6.0 | 0.00 | 0.03 | 0.00 | 79 | 1021.2 |
| 20260903162015 | 75 | 203 | 4.0 | 8.0 | 0.00 | 0.03 | 0.00 | 79 | 1021.3 |
| 20260903161015 | 75 | 203 | 3.0 | 8.0 | 0.00 | 0.03 | 0.00 | 80 | 1021.4 |
| 20260903160015 | 75 | 203 | 4.0 | 9.0 | 0.00 | 0.03 | 0.00 | 79 | 1021.6 |
| 20260903155035 | 75 | 203 | 4.0 | 8.0 | 0.00 | 0.03 | 0.00 | 79 | 1021.6 |
| 20260903154015 | 75 | 180 | 4.0 | 11.0 | 0.00 | 0.03 | 0.00 | 78 | 1021.8 |
| 20260903153015 | 75 | 203 | 4.0 | 8.0 | 0.00 | 0.03 | 0.00 | 79 | 1021.7 |
| 20260903152017 | 75 | 203 | 3.0 | 6.0 | 0.00 | 0.03 | 0.00 | 80 | 1021.8 |
| 20260903151016 | 74 | 203 | 4.0 | 10.0 | 0.00 | 0.03 | 0.00 | 80 | 1021.8 |
| 20260903150016 | 74 | 203 | 3.0 | 8.0 | 0.00 | 0.03 | 0.00 | 81 | 1021.9 |
| 20260903145015 | 74 | 225 | 3.0 | 7.0 | 0.00 | 0.03 | 0.00 | 81 | 1021.8 |
| 20260903144015 | 74 | 203 | 4.0 | 8.0 | 0.00 | 0.03 | 0.00 | 80 | 1021.9 |
| 20260903143015 | 75 | 203 | 4.0 | 8.0 | 0.00 | 0.03 | 0.00 | 77 | 1021.9 |
| 20260903142017 | 75 | 203 | 4.0 | 12.0 | 0.00 | 0.03 | 0.00 | 78 | 1021.9 |
| 20260903141015 | 76 | 225 | 4.0 | 9.0 | 0.00 | 0.03 | 0.00 | 77 | 1022.0 |
| 20260903140015 | 76 | 203 | 5.0 | 10.0 | 0.00 | 0.03 | 0.00 | 78 | 1021.9 |
| 20260903135015 | 76 | 225 | 4.0 | 9.0 | 0.00 | 0.03 | 0.00 | 77 | 1022.0 |
| 20260903134015 | 76 | 180 | 3.0 | 7.0 | 0.00 | 0.03 | 0.00 | 77 | 1022.0 |
| 20260903133016 | 76 | 225 | 4.0 | 7.0 | 0.00 | 0.03 | 0.00 | 78 | 1022.0 |
| 20260903132018 | 74 | 225 | 3.0 | 9.0 | 0.00 | 0.03 | 0.00 | 80 | 1022.0 |
| 20260903131016 | 74 | 225 | 2.0 | 5.0 | 0.00 | 0.03 | 0.00 | 80 | 1022.1 |
| 20260903130017 | 74 | 203 | 3.0 | 10.0 | 0.00 | 0.03 | 0.00 | 79 | 1022.4 |
| 20260903125036 | 74 | 203 | 2.0 | 6.0 | 0.00 | 0.03 | 0.00 | 80 | 1022.4 |
| 20260903124016 | 74 | 203 | 2.0 | 5.0 | 0.00 | 0.03 | 0.00 | 78 | 1022.4 |
| 20260903123016 | 74 | 180 | 3.0 | 7.0 | 0.00 | 0.03 | 0.00 | 77 | 1022.3 |
| 20260903122015 | 75 | 225 | 3.0 | 6.0 | 0.00 | 0.03 | 0.00 | 78 | 1022.3 |
| 20260903121016 | 74 | 203 | 3.0 | 6.0 | 0.00 | 0.03 | 0.00 | 79 | 1022.3 |
| 20260903120016 | 74 | 203 | 2.0 | 6.0 | 0.00 | 0.03 | 0.00 | 79 | 1022.2 |
| 20260903115036 | 73 | 203 | 2.0 | 5.0 | 0.00 | 0.03 | 0.00 | 79 | 1022.3 |
| 20260903114016 | 73 | 203 | 3.0 | 7.0 | 0.00 | 0.03 | 0.00 | 77 | 1022.3 |
| 20260903113015 | 74 | 203 | 3.0 | 5.0 | 0.00 | 0.03 | 0.00 | 77 | 1022.4 |
| 20260903112015 | 74 | 203 | 2.0 | 4.0 | 0.00 | 0.03 | 0.00 | 77 | 1022.4 |
| 20260903111015 | 75 | 180 | 3.0 | 7.0 | 0.00 | 0.03 | 0.00 | 77 | 1022.5 |
| 20260903110035 | 75 | 203 | 3.0 | 7.0 | 0.00 | 0.03 | 0.00 | 79 | 1022.5 |
| 20260903105019 | 74 | 180 | 3.0 | 9.0 | 0.00 | 0.03 | 0.00 | 81 | 1022.5 |
| 20260903104015 | 74 | 203 | 3.0 | 5.0 | 0.00 | 0.03 | 0.00 | 81 | 1022.5 |
| 20260903103015 | 73 | 203 | 3.0 | 6.0 | 0.00 | 0.03 | 0.00 | 81 | 1022.6 |
| 20260903102016 | 72 | 203 | 3.0 | 7.0 | 0.00 | 0.03 | 0.00 | 84 | 1022.4 |
| 20260903101018 | 71 | 203 | 2.0 | 7.0 | 0.00 | 0.04 | 0.00 | 84 | 1022.5 |
| 20260903100015 | 71 | 225 | 2.0 | 7.0 | 0.00 | 0.06 | 0.00 | 86 | 1022.7 |
| 20260903095017 | 70 | 203 | 2.0 | 4.0 | 0.00 | 0.06 | 0.00 | 86 | 1022.7 |
| 20260903094016 | 70 | 225 | 2.0 | 6.0 | 0.00 | 0.06 | 0.00 | 86 | 1022.7 |
| 20260903093016 | 70 | 225 | 1.0 | 4.0 | 0.00 | 0.06 | 0.00 | 86 | 1022.7 |
| 20260903092016 | 70 | 203 | 2.0 | 5.0 | 0.00 | 0.06 | 0.00 | 85 | 1022.8 |
| 20260903091015 | 70 | 248 | 2.0 | 5.0 | 0.00 | 0.06 | 0.00 | 85 | 1022.7 |
| 20260903090015 | 70 | 203 | 2.0 | 6.0 | 0.00 | 0.06 | 0.00 | 86 | 1022.5 |
| 20260903085016 | 70 | 225 | 3.0 | 7.0 | 0.00 | 0.06 | 0.00 | 86 | 1022.4 |
| 20260903084015 | 69 | 203 | 3.0 | 8.0 | 0.00 | 0.06 | 0.00 | 88 | 1022.3 |
| 20260903083016 | 69 | 203 | 3.0 | 6.0 | 0.00 | 0.06 | 0.00 | 88 | 1022.2 |
| 20260903082035 | 68 | 203 | 4.0 | 7.0 | 0.00 | 0.06 | 0.00 | 89 | 1022.1 |
| 20260903081056 | 68 | 180 | 4.0 | 7.0 | 0.00 | 0.06 | 0.00 | 90 | 1021.9 |
| 20260903080015 | 67 | 180 | 3.0 | 7.0 | 0.00 | 0.06 | 0.00 | 91 | 1021.8 |
| 20260903075016 | 67 | 225 | 3.0 | 7.0 | 0.00 | 0.06 | 0.00 | 92 | 1021.8 |
| 20260903074035 | 67 | 225 | 2.0 | 4.0 | 0.00 | 0.06 | 0.00 | 92 | 1021.6 |
| 20260903073016 | 67 | 203 | 2.0 | 7.0 | 0.00 | 0.06 | 0.00 | 92 | 1021.7 |
| 20260903072015 | 66 | 180 | 2.0 | 4.0 | 0.00 | 0.06 | 0.00 | 93 | 1021.8 |
| 20260903071016 | 66 | 203 | 2.0 | 5.0 | 0.00 | 0.06 | 0.00 | 93 | 1021.8 |
| 20260903070016 | 66 | 203 | 2.0 | 5.0 | 0.00 | 0.06 | 0.00 | 93 | 1021.7 |
| 20260903065035 | 66 | 203 | 2.0 | 5.0 | 0.00 | 0.06 | 0.00 | 93 | 1021.6 |
| 20260903064036 | 66 | 203 | 2.0 | 5.0 | 0.00 | 0.06 | 0.00 | 94 | 1021.7 |
| 20260903063015 | 65 | 203 | 2.0 | 4.0 | 0.00 | 0.06 | 0.00 | 94 | 1021.6 |
| 20260903062056 | 65 | 203 | 1.0 | 4.0 | 0.00 | 0.06 | 0.00 | 94 | 1021.6 |
| 20260903061015 | 65 | 203 | 2.0 | 3.0 | 0.00 | 0.06 | 0.00 | 94 | 1021.5 |
| 20260903060035 | 65 | 203 | 2.0 | 3.0 | 0.00 | 0.06 | 0.00 | 95 | 1021.5 |
| 20260903055015 | 65 | 203 | 2.0 | 4.0 | 0.00 | 0.06 | 0.00 | 95 | 1021.5 |
| 20260903054015 | 65 | 180 | 2.0 | 4.0 | 0.00 | 0.06 | 0.00 | 95 | 1021.5 |
| 20260903053015 | 65 | 180 | 2.0 | 7.0 | 0.00 | 0.06 | 0.00 | 95 | 1021.4 |
| 20260903052035 | 65 | 203 | 2.0 | 4.0 | 0.00 | 0.06 | 0.00 | 95 | 1021.5 |
| 20260903051015 | 65 | 180 | 2.0 | 4.0 | 0.00 | 0.06 | 0.00 | 95 | 1021.3 |
| 20260903050015 | 65 | 203 | 2.0 | 3.0 | 0.00 | 0.06 | 0.00 | 96 | 1021.3 |
| 20260903045016 | 65 | 203 | 2.0 | 3.0 | 0.00 | 0.06 | 0.00 | 96 | 1021.2 |
| 20260903044035 | 65 | 203 | 2.0 | 3.0 | 0.00 | 0.06 | 0.00 | 96 | 1021.1 |
| 20260903043015 | 65 | 203 | 2.0 | 4.0 | 0.00 | 0.06 | 0.00 | 96 | 1021.1 |
| 20260903042016 | 65 | 203 | 2.0 | 4.0 | 0.00 | 0.06 | 0.00 | 96 | 1021.2 |
| 20260903041015 | 65 | 203 | 2.0 | 4.0 | 0.00 | 0.06 | 0.00 | 96 | 1021.0 |
| 20260903040016 | 65 | 225 | 1.0 | 3.0 | 0.00 | 0.06 | 0.00 | 96 | 1021.1 |
| 20260903035016 | 65 | 180 | 2.0 | 4.0 | 0.00 | 0.06 | 0.00 | 96 | 1021.0 |
| 20260903034016 | 65 | 203 | 1.0 | 4.0 | 0.00 | 0.06 | 0.00 | 96 | 1021.1 |
| 20260903033015 | 65 | 203 | 2.0 | 4.0 | 0.00 | 0.06 | 0.00 | 95 | 1021.2 |
| 20260903032015 | 65 | 203 | 1.0 | 3.0 | 0.00 | 0.06 | 0.00 | 95 | 1020.9 |
| 20260903031016 | 65 | 203 | 2.0 | 3.0 | 0.00 | 0.06 | 0.00 | 95 | 1021.2 |
| 20260903030035 | 65 | 180 | 2.0 | 5.0 | 0.00 | 0.06 | 0.00 | 95 | 1021.0 |
| 20260903025015 | 65 | 203 | 3.0 | 5.0 | 0.00 | 0.06 | 0.00 | 95 | 1021.2 |
| 20260903024036 | 65 | 203 | 2.0 | 6.0 | 0.00 | 0.06 | 0.00 | 95 | 1021.2 |
| 20260903023016 | 65 | 203 | 2.0 | 4.0 | 0.00 | 0.06 | 0.00 | 95 | 1021.2 |
| 20260903022015 | 65 | 203 | 2.0 | 5.0 | 0.00 | 0.06 | 0.00 | 95 | 1021.4 |
| 20260903021018 | 65 | 203 | 2.0 | 6.0 | 0.00 | 0.06 | 0.00 | 95 | 1021.3 |
| 20260903020015 | 65 | 203 | 2.0 | 6.0 | 0.00 | 0.06 | 0.00 | 95 | 1021.1 |
| 20260903015015 | 65 | 203 | 2.0 | 4.0 | 0.00 | 0.06 | 0.00 | 95 | 1021.4 |
| 20260903014017 | 65 | 203 | 2.0 | 6.0 | 0.00 | 0.06 | 0.00 | 95 | 1021.4 |
| 20260903013015 | 65 | 203 | 2.0 | 5.0 | 0.00 | 0.06 | 0.00 | 95 | 1021.4 |
| 20260903012015 | 65 | 203 | 2.0 | 5.0 | 0.00 | 0.06 | 0.00 | 95 | 1021.5 |
| 20260903011015 | 65 | 180 | 2.0 | 4.0 | 0.00 | 0.06 | 0.00 | 95 | 1021.3 |
| 20260903010015 | 65 | 180 | 2.0 | 6.0 | 0.00 | 0.06 | 0.00 | 95 | 1021.4 |
| 20260903005036 | 65 | 203 | 3.0 | 5.0 | 0.00 | 0.06 | 0.00 | 95 | 1021.8 |
| 20260903004016 | 65 | 180 | 2.0 | 4.0 | 0.00 | 0.06 | 0.00 | 95 | 1021.7 |
| 20260903003015 | 65 | 248 | 2.0 | 5.0 | 0.00 | 0.06 | 0.00 | 95 | 1021.7 |
| 20260903002036 | 64 | 203 | 2.0 | 5.0 | 0.00 | 0.06 | 0.00 | 95 | 1021.6 |
| 20260903001016 | 65 | 203 | 2.0 | 5.0 | 0.00 | 0.06 | 0.00 | 95 | 1021.7 |
| 20260903000016 | 65 | 180 | 1.0 | 4.0 | 0.00 | 0.06 | 0.00 | 95 | 1021.5 |
| 20260902235016 | 65 | 203 | 1.0 | 2.0 | 0.00 | 0.06 | 0.00 | 95 | 1021.5 |
| 20260902234016 | 65 | 203 | 2.0 | 4.0 | 0.00 | 0.06 | 0.00 | 96 | 1021.7 |
| 20260902233015 | 65 | 203 | 1.0 | 3.0 | 0.00 | 0.06 | 0.00 | 96 | 1022.0 |
| 20260902232017 | 65 | 225 | 1.0 | 2.0 | 0.00 | 0.06 | 0.00 | 96 | 1022.0 |
| 20260902231017 | 65 | 225 | 1.0 | 2.0 | 0.00 | 0.06 | 0.00 | 96 | 1022.1 |
| 20260902230037 | 65 | 225 | 1.0 | 2.0 | 0.00 | 0.06 | 0.06 | 96 | 1022.3 |
| 20260902225016 | 65 | 180 | 1.0 | 3.0 | 0.00 | 0.06 | 0.06 | 96 | 1022.4 |
| 20260902224019 | 65 | 203 | 1.0 | 3.0 | 0.00 | 0.06 | 0.06 | 96 | 1022.1 |
| 20260902223015 | 65 | 203 | 1.0 | 3.0 | 0.00 | 0.06 | 0.06 | 96 | 1022.1 |
| 20260902222016 | 65 | 225 | 2.0 | 4.0 | 0.00 | 0.06 | 0.06 | 96 | 1022.1 |
| 20260902221036 | 65 | 203 | 1.0 | 2.0 | 0.00 | 0.06 | 0.06 | 96 | 1022.0 |
| 20260902220015 | 65 | 225 | 2.0 | 5.0 | 0.00 | 0.06 | 0.06 | 96 | 1021.8 |
| 20260902215015 | 65 | 225 | 2.0 | 4.0 | 0.00 | 0.06 | 0.06 | 96 | 1022.0 |
| 20260902214016 | 65 | 225 | 2.0 | 4.0 | 0.00 | 0.06 | 0.06 | 96 | 1022.1 |
| 20260902213035 | 65 | 248 | 1.0 | 5.0 | 0.01 | 0.06 | 0.06 | 96 | 1022.1 |
| 20260902212016 | 65 | 203 | 1.0 | 4.0 | 0.01 | 0.06 | 0.06 | 96 | 1022.2 |
| 20260902211015 | 65 | 203 | 2.0 | 4.0 | 0.01 | 0.06 | 0.06 | 96 | 1022.1 |
| 20260902210016 | 65 | 203 | 2.0 | 5.0 | 0.01 | 0.06 | 0.06 | 96 | 1022.1 |
| 20260902205016 | 65 | 203 | 2.0 | 5.0 | 0.01 | 0.06 | 0.06 | 96 | 1022.1 |
| 20260902204016 | 65 | 225 | 3.0 | 5.0 | 0.01 | 0.06 | 0.06 | 96 | 1021.9 |
| 20260902203016 | 65 | 225 | 2.0 | 4.0 | 0.00 | 0.06 | 0.06 | 96 | 1021.8 |